Weather past 2 weeks in Amsterdam Island, French Southern Territories

Now
56 °F

Cool.


Feels Like: 51 °F
Forecast: 53 / 55 °F
Wind: 25 mph from Northwest

Location: Martin De Vivies Ile Amsterdam

Current Time: Jul 5, 2015 at 9:53:47 AM

Latest Report: Jul 5, 2015 at 7:00 AM


Visibility: N/A

Pressure: 29.83 "Hg

Humidity: 87%

Dew point: 52 °F

Location of Amsterdam IslandLocation

Historic Weather in Amsterdam Island — Graph

°F

Amsterdam Island temperature yesterday

Maximum temperature yesterday: 60 °F (at 2:00 PM)
Minimum temperature yesterday: 52 °F (at 8:00 AM)
Average temperature yesterday: 57 °F

Past Weeks' High & Low Weather Summary

 TemperatureHumidityPressure
High61 °F (Jun 23, 12:00 PM)96% (Jun 29, 11:00 PM)30.46 "Hg (Jun 29, 11:00 PM)
Low46 °F (Jun 28, 6:00 AM)54% (Jun 24, 3:00 PM)29.50 "Hg (Jun 27, 5:00 AM)
Average56 °F82%29.98 "Hg
* Reported Jun 20 7:00 AM — Jul 5 7:00 AM, Amsterdam Island, Weather by CustomWeather, © 2015

Note: Actual official high and low records may vary slightly from our data, if they occured in-between our weather recording intervals... More about our weather records

Advertising

Amsterdam Island weather history for previous 24 hours

 ConditionsComfort  
Time TempWeatherWind HumidityBarometerVisibility
7:00 AM
Sun, Jul 5
56 °FCool.25 mph87%29.83 "HgN/A
6:00 AM56 °FCool.28 mph87%29.82 "HgN/A
5:00 AM56 °FCool.30 mph89%29.81 "HgN/A
4:00 AM57 °FCool.33 mph86%29.81 "HgN/A
3:00 AM56 °FCool.26 mph86%29.83 "HgN/A
1:00 AM56 °FCool.26 mph85%29.83 "HgN/A
12:00 AM56 °FCool.23 mph85%29.84 "HgN/A
11:00 PM
Sat, Jul 4
55 °FCool.21 mph85%29.85 "HgN/A
10:00 PM55 °FCool.22 mph82%29.85 "HgN/A
9:00 PM56 °FCool.22 mph80%29.85 "HgN/A
8:00 PM56 °FCool.23 mph79%29.84 "HgN/A
7:00 PM55 °FCool.22 mph74%29.83 "HgN/A
6:00 PM55 °FCool.24 mph77%29.81 "HgN/A
5:00 PM54 °FCool.26 mph79%29.78 "HgN/A
4:00 PM54 °FCool.26 mph87%29.75 "HgN/A
3:00 PM57 °FCool.32 mph76%29.71 "HgN/A
2:00 PM60 °FCool.28 mph75%29.68 "HgN/A
1:00 PM59 °FCool.30 mph76%29.67 "HgN/A
12:00 PM59 °FCool.28 mph78%29.66 "HgN/A
11:00 AM57 °FCool.28 mph88%29.66 "HgN/A
10:00 AM58 °FCool.33 mph89%29.65 "HgN/A
9:00 AM56 °FCool.32 mph93%29.66 "HgN/A
Weather by CustomWeather, © 2015

See weather overviewHow to use our weather pages